Location: Unspecified
(0.0000°N, 0.0000°E)
Time: 15:42:58
(UTC+00:00)

Vanguard 2 Rocket - All Passes

Search period start: 21 November 2017 00:00
Search period end: 01 December 2017 00:00
Orbit: 556 x 3326 km, 32.9° (Epoch: 20 November)

Date Brightness Start Highest point End Pass type
(mag) Time Alt. Az. Time Alt. Az. Time Alt. Az.
21 Nov - 01:44:04 10° W 01:58:13 25° NNW 02:09:00 10° NNE visible
21 Nov - 08:49:48 10° NNW 08:52:57 17° NNE 08:55:42 10° ENE daylight
21 Nov - 11:02:15 10° WNW 11:05:54 36° SSW 11:10:00 10° SE daylight
21 Nov - 17:50:59 10° S 17:58:53 17° SSE 18:08:51 10° ESE visible
21 Nov - 20:02:32 10° SW 20:18:00 48° SE 20:37:08 10° ENE visible
21 Nov - 22:17:40 10° WSW 22:37:05 80° NW 22:55:59 10° NE visible
22 Nov - 00:38:51 10° W 00:56:14 35° NW 01:10:03 10° NNE visible
22 Nov - 03:11:32 10° NW 03:16:03 12° NNW 03:20:02 10° N visible
22 Nov - 07:51:46 10° N 07:53:14 11° NNE 07:54:36 10° NE daylight
22 Nov - 10:02:42 10° WNW 10:06:56 85° SSW 10:10:57 10° SE daylight
22 Nov - 16:55:40 10° SSE 16:57:05 10° SSE 16:58:34 10° SSE daylight
22 Nov - 19:03:12 10° SSW 19:16:05 35° SE 19:33:12 10° E visible
22 Nov - 21:16:46 10° SW 21:34:45 82° SE 21:54:50 10° ENE visible
22 Nov - 23:35:09 10° WSW 23:54:03 48° NW 00:10:27 10° NE visible
23 Nov - 02:02:54 10° WNW 02:13:55 18° NNW 02:22:45 10° NNE visible
23 Nov - 09:03:19 10° NW 09:07:56 42° NNE 09:11:41 10° ESE daylight
23 Nov - 11:18:32 10° WSW 11:20:49 15° SSW 11:23:16 10° S daylight
23 Nov - 18:04:33 10° SSW 18:14:27 24° SSE 18:27:46 10° E visible
23 Nov - 20:16:37 10° SW 20:32:36 64° SE 20:52:47 10° ENE visible
23 Nov - 22:32:45 10° WSW 22:51:41 62° NW 23:10:15 10° NE visible
24 Nov - 00:56:26 10° WNW 01:11:35 26° NNW 01:23:56 10° NNE night (unlit)
24 Nov - 08:03:56 10° NNW 08:08:35 24° NNE 08:12:07 10° E daylight
24 Nov - 10:17:55 10° W 10:21:37 30° SW 10:25:10 10° SSE daylight
24 Nov - 17:06:57 10° S 17:13:02 15° SSE 17:20:35 10° ESE daylight
24 Nov - 19:17:07 10° SW 19:30:48 48° SE 19:49:42 10° ENE visible
24 Nov - 21:31:26 10° WSW 21:49:16 78° NW 22:09:23 10° NE visible
24 Nov - 23:51:42 10° W 00:09:07 35° NNW 00:24:25 10° NNE visible
25 Nov - 02:22:31 10° NW 02:30:15 14° NNW 02:36:47 10° N visible
25 Nov - 07:04:26 10° NNW 07:08:46 17° NNE 07:12:07 10° ENE daylight
25 Nov - 09:17:47 10° WNW 09:22:42 72° SW 09:26:36 10° SE daylight
25 Nov - 18:18:14 10° SSW 18:29:25 34° SE 18:45:24 10° E visible
25 Nov - 20:30:59 10° SW 20:47:05 84° SE 21:07:47 10° NE visible
25 Nov - 22:48:30 10° W 23:06:33 47° NNW 23:24:19 10° NE visible
26 Nov - 01:15:03 10° WNW 01:27:35 20° NNW 01:38:00 10° NNE visible
26 Nov - 06:04:37 10° NNW 06:08:28 13° NNE 06:11:36 10° NE daylight
26 Nov - 08:17:46 10° NW 08:23:38 54° NNE 08:27:44 10° ESE daylight
26 Nov - 10:34:42 10° WSW 10:36:23 12° SSW 10:38:01 10° S daylight
26 Nov - 17:20:04 10° S 17:28:20 22° SE 17:39:46 10° E daylight
26 Nov - 19:31:14 10° SW 19:45:16 65° SE 20:05:19 10° ENE visible
26 Nov - 21:46:35 10° WSW 22:04:00 60° NW 22:23:37 10° NE visible
27 Nov - 00:09:13 10° WNW 00:24:44 27° NNW 00:38:26 10° NNE visible
27 Nov - 02:41:33 10° NNW 02:47:03 12° N 02:51:52 10° N visible
27 Nov - 05:04:04 10° N 05:07:38 12° N 05:10:39 10° NNE visible
27 Nov - 07:17:39 10° NW 07:24:10 32° NNE 07:28:31 10° E daylight
27 Nov - 09:33:09 10° W 09:37:16 27° SW 09:40:43 10° SSE daylight
27 Nov - 16:23:33 10° SSE 16:27:27 12° SSE 16:32:03 10° SE daylight
27 Nov - 18:32:07 10° SSW 18:43:57 47° SE 19:01:54 10° ENE visible
27 Nov - 20:45:42 10° WSW 21:01:40 75° NW 21:22:17 10° NE visible
27 Nov - 23:05:03 10° W 23:21:52 35° NNW 23:38:18 10° NNE visible
28 Nov - 01:34:10 10° NW 01:44:10 16° NNW 01:52:38 10° NNE visible
28 Nov - 04:02:03 10° NNW 04:06:10 12° N 04:09:43 10° NNE visible
28 Nov - 06:17:17 10° NNW 06:24:11 24° NNE 06:28:54 10° ENE daylight
28 Nov - 08:32:22 10° WNW 08:38:22 63° SW 08:42:30 10° SE daylight
28 Nov - 17:33:35 10° SSW 17:43:07 32° SE 17:57:26 10° E daylight
28 Nov - 19:45:38 10° SW 19:59:43 86° SE 20:20:16 10° NE visible
28 Nov - 22:02:22 10° W 22:19:04 45° NNW 22:37:40 10° NE visible
29 Nov - 00:27:38 10° WNW 00:41:00 21° NNW 00:52:47 10° NNE night (unlit)
29 Nov - 02:58:05 10° NNW 03:04:00 13° N 03:09:03 10° NNE visible
29 Nov - 05:16:29 10° NNW 05:23:41 19° NNE 05:28:50 10° ENE visible
29 Nov - 07:31:41 10° NW 07:39:13 67° NNE 07:43:52 10° ESE daylight
29 Nov - 09:50:16 10° WSW 09:51:51 12° SW 09:53:20 10° SSW daylight
29 Nov - 16:35:53 10° S 16:42:35 19° SE 16:51:46 10° ESE daylight
29 Nov - 18:46:14 10° SW 18:58:20 66° SE 19:17:28 10° ENE visible
29 Nov - 21:00:55 10° WSW 21:16:31 57° NNW 21:36:27 10° NE visible
29 Nov - 23:22:30 10° WNW 23:37:44 27° NNW 23:52:27 10° NNE visible
30 Nov - 01:52:30 10° NW 02:01:11 15° N 02:08:31 10° NNE visible
30 Nov - 04:15:00 10° NNW 04:22:35 17° NNE 04:28:16 10° NE visible
30 Nov - 06:30:53 10° NW 06:39:36 42° NNE 06:44:51 10° E daylight
30 Nov - 08:47:51 10° W 08:52:49 27° SW 08:56:33 10° SSE daylight
30 Nov - 17:47:25 10° SSW 17:57:32 46° SE 18:13:54 10° ENE visible
30 Nov - 20:00:25 10° WSW 20:14:22 72° NW 20:34:43 10° NE visible
30 Nov - 22:18:57 10° W 22:34:37 34° NNW 22:51:41 10° NNE visible
